Danville, VA

2:52 PM EDT on June 23, 2017 (GMT -0400)
Danville Regional

Weather History for KDAN - March, 2012

Change the Weather History Date:

Thursday, March 15, 2012

  Actual Average Record
Temperature  
Mean Temperature 63 °F 48 °F  
Max Temperature 78 °F 59 °F 88 °F (1990)
Min Temperature 48 °F 38 °F 12 °F (1993)
Degree Days  
Heating Degree Days 2 17  
Month to date heating degree days 203 284  
Since 1 July heating degree days 2928 3285  
Cooling Degree Days 0 0  
Month to date cooling degree days 1 0  
Year to date cooling degree days 1 0  
Growing Degree Days 13 (Base 50)    
Moisture  
Dew Point 49 °F    
Average Humidity 68    
Maximum Humidity 100    
Minimum Humidity 35    
Precipitation  
Precipitation 0.00 in 0.14 in 0.99 in (2009)
Month to date precipitation 0.71 1.70  
Year to date precipitation 4.82 8.13  
Snow  
Snow 0.00 in - - ()
Month to date snowfall 0.0  
Since 1 July snowfall 3.0  
Snow Depth 0.00 in    
Sea Level Pressure  
Sea Level Pressure 30.19 in    
Wind  
Wind Speed 5 mph (WSW)    
Max Wind Speed 18 mph    
Max Gust Speed 24 mph    
Visibility 10 miles    
Events      
T = Trace of Precipitation, MM = Missing Value Source: NWS Daily Summary

Daily Weather History Graph

Daily Weather History Graph

Search for Another Location

Airport or City:

Trip Planner

Search our weather history database for the weather conditions in past years. The results will help you decide how hot, cold, wet, or windy it might be!

Date:

Astronomy

Mar. 15, 2012 Rise Set
Actual Time 7:27 AM EDT 7:25 PM EDT
Civil Twilight 7:01 AM EDT 7:50 PM EDT
Nautical Twilight 6:31 AM EDT 8:20 PM EDT
Astronomical Twilight 6:01 AM EDT 8:51 PM EDT
Moon 2:44 AM EDT (3/15) 12:49 PM EDT (3/15)
Length of Visible Light 12h 49m
Length of Day
11h 57m
Last Quarter, 43% of the Moon is Illuminated
Mar 15
Last Quarter
Mar 22
New
Mar 30
First Quarter
Apr 6
Full
Apr 13
Last Quarter

Hourly Weather History & Observations

Time (EDT) Temp. Dew Point Humidity Pressure Visibility Wind Dir Wind Speed Gust Speed Precip Events Conditions
12:53 AM 55.9 °F 46.0 °F 69% 30.19 in 10.0 mi SSW 3.5 mph - N/A   Clear
1:53 AM 54.0 °F 46.9 °F 77% 30.19 in 10.0 mi Calm Calm - N/A   Clear
2:53 AM 54.0 °F 46.9 °F 77% 30.19 in 10.0 mi Calm Calm - N/A   Clear
3:53 AM 53.1 °F 48.0 °F 83% 30.19 in 10.0 mi Calm Calm - N/A   Clear
4:53 AM 54.0 °F 48.0 °F 80% 30.18 in 9.0 mi Calm Calm - N/A   Clear
5:53 AM 51.1 °F 48.0 °F 89% 30.19 in 10.0 mi Calm Calm - N/A   Clear
6:53 AM 48.9 °F 48.0 °F 97% 30.20 in 9.0 mi Calm Calm - N/A   Clear
7:53 AM 50.0 °F 46.9 °F 89% 30.22 in 9.0 mi Calm Calm - N/A   Clear
8:53 AM 55.0 °F 50.0 °F 83% 30.24 in 10.0 mi Calm Calm - N/A   Scattered Clouds
9:53 AM 62.1 °F 52.0 °F 70% 30.23 in 10.0 mi SW 6.9 mph - N/A   Clear
10:53 AM 70.0 °F 53.1 °F 55% 30.24 in 10.0 mi Variable 4.6 mph - N/A   Scattered Clouds
11:53 AM 73.9 °F 52.0 °F 46% 30.24 in 10.0 mi SW 4.6 mph - N/A   Partly Cloudy
12:24 PM 77.0 °F 51.8 °F 41% 30.25 in 10.0 mi West 4.6 mph - N/A   Partly Cloudy
12:53 PM 77.0 °F 52.0 °F 42% 30.22 in 10.0 mi SW 8.1 mph - N/A   Clear
1:53 PM 78.1 °F 51.1 °F 39% 30.19 in 10.0 mi WSW 9.2 mph - N/A   Mostly Cloudy
2:53 PM 77.0 °F 48.9 °F 37% 30.17 in 10.0 mi West 4.6 mph - N/A   Scattered Clouds
3:53 PM 75.9 °F 48.9 °F 38% 30.17 in 10.0 mi NW 10.4 mph - N/A   Clear
4:53 PM 73.9 °F 45.0 °F 35% 30.18 in 10.0 mi WNW 15.0 mph 24.2 mph N/A   Clear
5:53 PM 75.9 °F 46.9 °F 36% 30.13 in 10.0 mi NW 6.9 mph - N/A   Scattered Clouds
6:53 PM 68.0 °F 48.9 °F 50% 30.18 in 10.0 mi WSW 11.5 mph - N/A   Mostly Cloudy
7:53 PM 66.9 °F 50.0 °F 54% 30.19 in 10.0 mi West 9.2 mph - N/A   Clear
8:53 PM 64.0 °F 51.1 °F 63% 30.15 in 10.0 mi SSW 5.8 mph - N/A   Clear
9:53 PM 63.0 °F 51.1 °F 65% 30.15 in 10.0 mi Calm Calm - N/A   Clear
10:53 PM 60.1 °F 52.0 °F 75% 30.17 in 10.0 mi WSW 3.5 mph - N/A   Overcast
11:53 PM 61.0 °F 52.0 °F 72% 30.17 in 10.0 mi SW 3.5 mph - N/A   Scattered Clouds